Location: Central Falls
(41.8900°N, 71.3929°W)
Time: 03:59:54
(UTC+00:00)

Vanguard 2 Rocket - Pass Details

Date: 06 December 2023
Orbit: 555 x 3309 km, 32.9° (Epoch: 01 March)

Event Time Altitude Azimuth Distance (km) Brightness Sun altitude
Rises 02:25:54 0° 279° (W) 7,130 11.9 -56.6°
Reaches altitude 10° 02:33:21 10° 264° (W) 5,761 11.2 -57.8°
Maximum altitude 02:42:33 17° 231° (SW) 4,499 10.4 -59.3°
Enters shadow 02:43:26 17° 227° (SW) 4,431 10.4 -59.4°
Drops below altitude 10° 02:49:52 10° 195° (SSW) 4,400 - -60.5°
Sets 02:54:25 0° 176° (S) 4,893 - -61.2°
